Flag Weather past 2 weeks in Ramat Gan, Israel

Now
66 °F

Partly sunny.


Feels Like: 66 °F
Forecast: 55 / 65 °F
Wind: 2 mph from North

Location: Dov Airport

Current Time: Nov 27, 2014 at 2:31:43 PM

Latest Report: Nov 27, 2014 at 1:50 PM


Visibility: N/A

Pressure: 29.98 "Hg

Humidity: 73%

Dew point: 57 °F

Location of Ramat GanLocation

Historic Weather in Ramat Gan — Graph

°F

Ramat Gan temperature yesterday

Maximum temperature yesterday: 66 °F (at 10:50 AM)
Minimum temperature yesterday: 63 °F (at 8:50 AM)
Average temperature yesterday: 64 °F

Past Weeks' High & Low Weather Summary

 TemperatureHumidityPressure
High82 °F (Nov 19, 1:50 PM)94% (Nov 23, 9:50 PM)30.15 "Hg (Nov 23, 9:50 PM)
Low55 °F (Nov 25, 3:50 AM)30% (Nov 19, 12:50 PM)29.83 "Hg (Nov 26, 4:55 AM)
Average68 °F68%29.94 "Hg
* Reported Nov 12 12:50 PM — Nov 27 12:50 PM, Ramat Gan, Weather by CustomWeather, © 2014

Note: Actual official high and low records may vary slightly from our data, if they occured in-between our weather recording intervals... More about our weather records

Advertising

Ramat Gan weather history for previous 24 hours

 ConditionsComfort  
Time TempWeatherWind HumidityBarometerVisibility
12:50 PM
Nov 27
63 °FLight rain. Partly sunny.3 mph77%29.98 "HgN/A
11:56 AM61 °FLight rain. Partly sunny.6 mph83%29.98 "HgN/A
10:50 AM61 °FPartly sunny.13 mph77%29.98 "HgN/A
9:50 AM61 °FScattered clouds.10 mph83%30.01 "HgN/A
8:50 AM59 °FPartly sunny.8 mph82%30.01 "HgN/A
7:50 AM57 °FPartly sunny.9 mph82%29.98 "HgN/A
6:50 AM57 °FPartly sunny.10 mph82%29.98 "HgN/A
5:50 AM57 °FPassing clouds.10 mph82%29.95 "HgN/A
10:50 PM
Nov 26
66 °FPassing clouds.21 mph60%29.95 "HgN/A
9:50 PM66 °FPassing clouds.22 mph64%29.92 "HgN/A
8:50 PM64 °FPassing clouds.23 mph68%29.92 "HgN/A
7:50 PM64 °FPassing clouds.24 mph68%29.92 "HgN/A
6:50 PM64 °FPassing clouds.26 mph68%29.92 "HgN/A
5:50 PM64 °FPassing clouds.28 mph68%29.89 "HgN/A
4:50 PM64 °FPassing clouds.28 mph68%29.89 "HgN/A
3:50 PM64 °FScattered clouds.28 mph68%29.89 "HgN/A
2:50 PM66 °FPassing clouds.32 mph64%29.86 "HgN/A
Weather by CustomWeather, © 2014

See weather overviewHow to use our weather pages